GSAT0101 (GALILEO-PFM)

Last updated on Fri Oct 11 2024 00:02:28 GMT+0000 (Coordinated Universal Time)

1 37846U 11060A 24283.52073027 -.00000078 00000+0 00000+0 0 9995 2 37846 57.1241 358.4447 0000411 311.7581 48.2934 1.70475797 80620
UTC large
Height (km)
Speed (km/s)
/
Latitude / Longitude
Inclination (degrees)
Orbital Period (minutes)
Azimuth
Elevation
Range (km)
Doppler Factor

Next 0 passes for location: London (51.5072 / 0.1276)

Sorry there are no passes over London.